Probability
2 2 1 2 2 1 0 0 0 0 0 1 2 2 3 3 3 3 3 3 3 3 3 3 3 3 3 3 3 3 3 4 6 8 7 4 2 3 2 3 4 4 4
1 1 0 1 1 0 0 0 0 0 0 0 1 1 2 3 3 3 3 3 3 3 3 3 3 3 3 3 3 3 3 3 4 6 6 3 2 2 2 2 2 2 3
0 0 0 0 0 0 0 0 0 0 0 0 0 0 1 1 2 2 3 3 3 3 3 3 3 3 3 3 3 3 3 3 3 4 4 2 1 2 2 1 0 1 2
0 0 0 0 0 0 0 0 0 0 0 0 0 0 0 0 1 1 1 2 3 3 3 3 3 3 1 1 2 3 3 3 3 3 3 1 0 1 2 1 1 0 1
0 0 0 0 0 0 0 0 0 0 0 0 0 0 0 0 0 0 0 1 1 2 2 3 3 2 1 0 1 1 2 2 2 3 2 1 0 0 0 1 1 0 0
0 0 0 0 0 0 0 0 0 0 0 0 0 0 0 0 0 0 0 0 0 1 1 1 2 2 1 0 0 0 1 1 1 1 1 1 0 0 0 0 0 0 0
0 0 0 0 0 0 0 0 0 0 0 0 0 0 0 0 0 0 0 0 0 0 0 0 1 1 0 0 0 0 0 0 0 0 0 0 0 0 0 0 0 0 0
0 0 0 0 0 0 0 0 0 0 0 0 0 0 0 0 0 0 0 0 0 0 0 0 0 0 0 0 0 0 0 0 0 0 0 0 0 0 0 0 0 0 0
0 0 0 0 0 0 0 0 0 0 0 0 0 0 0 0 0 0 0 0 0 0 0 0 0 0 0 0 0 0 0 0 0 0 0 0 0 0 0 0 0 0 0
0 0 0 0 0 0 0 0 0 0 0 0 0 0 0 0 0 0 0 0 0 0 0 0 0 0 0 0 0 0 0 0 0 0 0 0 0 0 0 0 0 0 0
0 0 0 0 0 0 0 0 0 0 0 0 0 0 0 0 0 0 0 0 0 0 0 0 0 0 0 0 0 0 0 0 0 0 0 0 0 0 0 0 0 0 0
0 0 0 0 0 0 0 0 0 0 0 0 0 0 0 0 0 0 0 0 0 0 0 0 0 0 0 0 0 0 0 0 0 0 0 0 0 0 0 0 0 0 0
0 0 0 0 0 0 0 0 0 0 0 0 0 0 0 0 0 0 0 0 0 0 0 0 0 0 0 0 0 0 0 0 0 0 0 0 0 0 0 0 0 0 0
0 0 0 0 0 0 0 0 0 0 0 0 0 0 0 0 0 0 0 0 0 0 0 0 0 0 0 0 0 0 0 0 0 0 0 0 0 0 0 0 0 0 0
0 0 0 0 0 0 0 0 0 0 0 0 0 0 0 0 0 0 0 0 0 0 0 0 0 0 0 0 0 0 0 0 0 0 0 0 0 0 0 0 0 0 0
0 0 0 0 0 0 0 0 0 0 0 0 0 0 0 0 0 0 0 0 0 0 0 0 0 0 0 0 0 0 0 0 0 0 0 0 0 0 0 0 0 0 0
0 0 0 0 0 0 0 0 0 0 0 0 0 0 0 0 0 0 0 0 0 0 0 0 0 0 0 0 0 0 0 0 0 0 0 0 0 0 0 0 0 0 0
0 0 0 0 0 0 0 0 0 0 0 0 0 0 0 0 0 0 0 0 0 0 0 0 0 0 0 0 0 0 0 0 0 0 0 0 0 0 0 0 0 0 0
0 0 0 0 0 0 0 0 0 0 0 0 0 0 0 0 0 0 0 0 0 0 0 0 0 0 0 0 0 0 0 0 0 0 0 0 0 0 0 0 0 0 0
0 0 0 0 0 0 0 0 0 0 0 0 0 0 0 0 0 0 0 0 0 0 0 0 0 0 0 0 0 0 0 0 0 0 0 0 0 0 0 0 0 0 0
0 0 0 0 0 0 0 0 0 0 0 0 0 0 0 0 0 0 0 0 0 0 0 0 0 0 0 0 0 0 0 0 0 0 0 0 0 0 0 0 0 0 0
0 0 0 0 0 0 0 0 0 0 0 0 0 0 0 0 0 0 0 0 0 0 0 0 0 0 0 0 0 0 0 0 0 0 0 0 0 0 0 0 0 0 0
0 0 0 0 0 0 0 0 0 0 0 0 0 0 0 0 0 0 0 0 0 0 0 0 0 0 0 0 0 0 0 0 0 0 0 0 0 0 0 0 0 0 0
0 0 0 0 0 0 0 0 0 0 0 0 0 0 0 0 0 0 0 0 0 0 0 0 0 0 0 0 0 0 0 0 0 0 0 0 0 0 0 0 0 0 0
0 0 0 0 0 0 0 0 0 0 0 0 0 0 0 0 0 0 0 0 0 0 0 0 0 0 0 0 0 0 0 0 0 0 0 0 0 0 0 0 0 0 0
0 0 0 0 0 0 0 0 0 0 0 0 0 0 0 0 0 0 0 0 0 0 0 0 0 0 0 0 0 0 0 0 0 0 0 0 0 0 0 0 0 0 0
Wind_Speed
1 1 1 1 2 3 3 3 3 2 2 1 1 1 1 1 1 1 2 2 2 2 1 1 2 2 2 3 3 3 3 3 2 3 3 4 6 7 7 7 7 9 10
0 0 0 1 1 1 2 2 3 2 2 1 1 0 0 1 1 2 2 2 3 2 1 2 2 2 2 3 3 2 2 2 2 2 2 2 3 5 8 7 8 9 7
1 1 0 0 1 1 1 2 2 2 2 2 1 2 2 2 2 3 3 3 4 3 2 2 2 2 2 3 3 3 4 3 2 3 3 2 3 2 3 7 8 8 7
1 1 1 0 0 0 1 2 2 2 2 2 2 1 1 1 2 2 3 4 4 4 3 3 3 3 2 3 4 3 3 3 3 2 3 3 2 2 2 2 5 8 9
1 1 1 1 1 1 2 1 2 2 2 2 1 1 1 1 2 2 4 4 4 4 4 4 3 3 3 4 4 3 3 3 3 3 2 3 3 3 3 3 3 4 6
1 1 1 1 1 2 2 2 2 2 3 2 2 1 2 2 3 4 4 4 3 4 5 4 3 3 3 4 4 4 4 4 4 4 3 3 3 2 3 4 3 3 3
2 1 1 1 1 2 2 2 2 3 3 3 3 3 3 3 3 4 4 4 4 4 5 4 4 4 4 4 4 4 4 5 5 5 4 4 4 3 3 3 3 3 1
2 1 0 0 1 1 2 2 3 3 4 4 4 4 3 2 3 4 4 4 4 5 6 5 5 5 5 5 3 3 4 4 5 5 5 4 4 3 3 3 2 2 1
1 1 1 1 1 2 2 3 3 4 4 4 5 5 4 4 4 5 4 4 5 5 6 6 6 6 5 5 4 4 5 4 5 5 5 4 3 3 3 3 3 3 3
0 1 1 2 2 2 3 3 3 4 4 5 5 5 5 5 5 5 6 6 6 6 6 7 6 6 6 5 4 4 5 5 4 4 5 4 3 3 3 3 3 3 3
1 1 1 2 2 3 3 4 4 4 5 5 5 5 6 5 5 5 6 6 6 6 6 7 6 6 6 6 5 5 5 6 5 5 5 5 4 3 3 3 2 2 2
1 1 2 2 3 4 5 5 5 5 5 5 5 6 6 6 6 6 7 6 7 7 7 6 6 7 7 6 6 7 6 6 6 6 5 6 4 5 3 3 3 3 2
1 1 2 3 4 5 5 5 5 6 6 5 6 6 6 6 7 7 7 7 7 7 7 6 7 7 7 7 6 6 7 6 7 6 6 6 5 5 4 4 3 2 2
2 2 3 4 5 5 5 5 6 6 6 6 6 7 7 7 7 7 7 7 7 7 7 7 7 7 7 7 7 6 6 6 6 6 6 6 6 6 5 4 4 3 3
3 4 4 4 5 5 5 5 6 6 6 6 7 7 7 7 7 7 8 7 7 7 6 7 7 7 6 6 6 6 6 6 6 6 6 6 8 9 6 4 4 4 3
5 5 5 5 5 5 5 6 6 6 6 7 7 8 8 8 8 8 8 7 7 7 6 6 7 6 6 7 8 6 5 5 6 6 6 6 7 8 9 8 7 7 5
6 5 5 5 5 5 5 6 6 6 6 7 8 8 8 8 8 8 8 8 7 7 7 7 6 7 8 10 10 9 5 5 5 6 5 5 5 6 6 7 8 7 7
5 5 4 5 5 4 5 5 6 6 7 7 8 8 8 8 8 8 8 7 6 6 6 7 7 7 8 9 9 9 6 5 6 6 6 6 5 5 5 6 6 5 5
5 4 4 4 4 5 5 5 6 6 7 7 8 8 8 8 8 8 8 7 6 7 6 6 6 6 8 9 8 7 4 4 6 6 6 6 5 6 7 6 6 5 4
3 3 3 3 4 5 4 4 6 6 7 8 8 8 7 7 8 8 7 6 6 7 7 7 6 6 6 7 7 5 3 4 4 4 4 6 6 7 8 7 6 6 5
4 3 3 3 4 4 3 5 6 7 7 8 8 8 7 7 7 6 5 6 6 6 6 6 6 5 5 6 5 4 2 3 4 3 3 3 5 7 8 7 6 7 6
4 3 3 4 4 4 3 5 6 7 7 7 7 7 7 6 6 6 6 6 5 6 6 6 6 4 4 4 5 5 4 3 3 3 3 3 4 5 7 6 6 7 6
5 3 3 4 5 4 3 5 6 6 7 7 7 7 7 6 6 5 6 6 5 4 5 4 5 5 4 4 5 5 4 3 3 3 4 4 5 5 4 5 7 6 5
4 3 3 4 5 4 4 5 6 6 6 7 7 7 7 7 7 5 4 4 4 4 4 4 5 5 4 4 4 3 2 2 2 2 2 3 3 2 2 3 3 4 4
4 3 4 4 6 5 5 5 5 4 5 6 6 6 6 6 6 6 5 5 4 4 4 4 4 5 5 5 5 3 2 2 1 0 0 1 1 2 2 2 3 3 4
4 3 4 5 5 5 5 5 4 4 4 5 6 5 5 5 5 6 6 6 6 8 8 8 6 5 7 9 7 5 4 3 2 1 1 2 2 3 3 3 3 4 5
Wind_Direction
92 35 44 61 70 61 60 63 75 62 70 71 68 56 2 332 351 341 328 320 313 298 258 263 264 251 251 257 256 251 252 247 228 232 248 244 231 227 228 227 226 225 222
26 15 27 51 53 59 53 51 50 42 38 42 36 12 322 309 305 321 331 331 324 309 287 265 264 254 253 261 254 239 246 250 215 207 224 255 257 238 230 222 225 228 220
225 235 206 30 42 25 14 44 38 36 28 26 34 29 22 0 351 342 335 330 329 320 307 295 283 270 248 255 257 240 235 242 238 216 210 214 234 255 234 222 224 222 218
221 182 157 124 92 40 50 45 34 31 21 27 44 47 32 316 294 301 307 317 327 325 313 292 275 268 256 252 255 239 234 235 244 240 235 234 225 232 261 239 223 221 220
187 138 121 108 71 59 67 54 42 27 14 26 54 57 355 275 293 305 311 316 318 318 314 302 283 270 261 258 253 249 234 227 234 234 235 242 245 235 242 255 238 225 222
114 103 95 84 56 37 40 35 28 357 352 360 3 359 303 299 310 313 311 311 309 307 310 310 297 283 271 266 260 252 246 239 239 239 233 230 233 223 228 244 241 235 230
140 139 101 54 28 25 12 3 2 336 335 339 334 320 304 295 288 291 294 299 300 297 299 306 297 290 279 272 260 254 253 245 240 237 236 238 242 232 224 240 243 234 236
153 155 139 70 9 357 350 345 339 326 328 330 323 317 308 293 283 282 280 279 276 280 286 290 286 283 283 283 268 257 252 242 239 245 241 239 244 235 225 222 220 230 232
143 112 39 22 352 337 331 327 327 320 318 321 321 315 313 301 290 289 282 277 275 281 287 291 288 285 282 278 273 258 256 248 242 244 241 239 242 239 235 231 214 204 211
105 36 12 351 335 325 322 326 322 311 310 317 314 315 308 299 293 294 292 288 286 285 289 289 288 285 283 275 267 265 257 248 247 244 240 237 238 237 234 232 229 214 202
197 288 309 318 323 328 329 326 327 322 317 314 308 308 304 303 303 298 292 291 291 291 288 285 284 281 279 275 266 263 260 250 247 248 240 239 231 229 229 228 228 227 196
224 288 308 324 331 330 328 327 324 319 311 309 308 306 305 307 306 300 295 294 292 291 286 285 283 279 277 270 261 263 262 254 250 244 238 241 232 227 223 218 223 223 206
270 307 317 319 318 318 319 319 318 313 311 313 314 312 310 307 302 298 297 295 292 292 289 283 278 277 276 271 263 256 257 254 252 246 237 237 229 226 221 212 214 222 213
261 279 297 303 304 307 309 311 311 310 313 315 313 308 304 301 298 297 295 293 291 290 288 285 279 275 274 271 266 259 256 256 255 249 241 237 228 224 218 211 204 204 202
271 279 286 291 298 305 308 309 307 310 314 314 310 303 301 301 301 301 300 297 293 293 287 287 285 279 273 264 260 256 256 253 255 252 243 236 230 225 215 207 199 191 187
266 277 284 291 296 298 301 304 303 307 312 309 305 304 306 308 307 306 305 304 301 298 295 290 288 286 279 280 275 265 255 253 253 253 247 240 234 225 214 211 201 190 184
261 267 274 278 283 286 289 293 296 305 310 307 307 308 309 309 308 311 313 309 305 302 302 296 291 286 282 281 279 272 258 250 250 249 246 244 232 213 209 207 204 203 203
256 263 269 277 280 282 291 295 300 305 307 307 308 310 312 311 312 313 311 307 303 302 299 297 294 288 286 285 280 275 259 250 249 245 237 235 239 225 202 194 196 201 211
241 246 252 261 275 287 293 304 306 309 309 309 311 312 313 313 314 315 311 307 305 306 303 299 297 292 292 293 287 272 247 243 248 245 236 228 228 225 205 191 189 193 211
240 243 260 272 280 285 296 302 303 308 308 308 308 308 308 307 308 307 304 303 303 301 304 302 299 294 294 299 295 274 235 238 243 242 239 233 225 215 203 192 186 194 203
234 239 254 266 272 284 297 296 299 298 299 304 306 308 309 306 301 302 302 308 311 312 313 309 307 304 302 306 308 294 239 232 235 233 231 231 220 214 208 198 196 199 189
236 236 247 270 279 285 287 292 293 293 303 307 308 310 311 310 314 312 311 314 316 319 321 321 321 318 316 314 312 308 278 242 233 238 235 231 224 221 212 202 204 194 178
234 237 241 271 286 283 270 282 288 302 310 312 311 311 314 313 312 311 314 317 319 317 318 321 319 318 320 318 316 316 307 276 241 246 241 237 227 217 207 203 194 181 175
235 235 243 268 282 288 284 271 287 301 307 310 311 313 316 319 322 315 305 304 309 314 316 318 315 311 312 323 330 327 323 307 269 265 262 239 209 190 187 190 192 187 185
231 226 234 255 272 287 291 291 296 304 309 309 310 315 316 316 319 316 299 291 277 261 276 289 287 297 307 304 311 309 311 303 264 242 199 168 169 183 187 186 190 190 188
224 230 242 253 269 283 288 294 299 298 303 308 313 314 316 317 318 319 319 295 275 282 271 259 262 269 268 289 301 304 300 288 228 182 197 211 211 209 206 201 197 198 201